Wetbulb
71.73 73.01 73.00 73.95 74.86 75.67 76.50 76.92 76.59 77.69 77.05 76.90 75.02 73.45 71.80 72.95 73.27 74.38 75.01 74.37 73.62 73.26 73.15 72.75 73.13 74.04 73.16 72.81 73.65 73.53 71.79 71.95 72.38 70.94 70.65 70.30 72.67 73.28 74.07 73.68 73.13 73.10 73.92
69.81 72.39 73.89 74.27 74.48 75.21 76.00 76.23 76.57 77.16 76.60 76.77 75.41 74.82 75.38 73.83 72.90 74.52 73.65 72.57 72.38 72.63 72.48 72.35 72.95 73.09 71.83 72.60 73.18 72.31 71.37 72.20 71.87 69.16 69.04 65.78 69.51 71.68 72.87 73.36 73.40 72.02 73.12
69.16 71.88 72.69 74.47 75.14 74.12 75.40 75.86 76.12 76.28 76.33 75.22 75.92 75.15 74.36 71.91 68.78 69.01 71.88 72.33 72.11 72.06 72.16 72.33 72.60 72.67 73.68 71.71 72.56 72.08 70.39 70.16 71.54 71.36 67.49 64.67 65.38 68.76 72.06 72.29 72.16 71.92 71.94
69.04 71.57 72.16 74.41 74.85 74.14 74.39 75.78 76.67 76.70 76.07 74.70 73.36 72.79 70.37 66.81 68.47 69.16 71.78 70.64 71.26 72.31 72.03 72.06 72.35 73.19 73.29 71.07 72.80 71.76 69.11 69.42 69.30 69.60 70.80 69.58 70.77 66.03 65.52 70.34 71.96 72.39 71.60
68.73 71.89 72.70 74.00 74.94 75.32 74.62 75.47 76.43 76.43 75.45 74.43 73.48 73.04 68.85 69.62 70.93 69.73 70.30 71.74 71.86 72.56 71.73 71.54 72.03 72.97 73.04 72.94 72.02 72.32 70.42 70.11 68.69 67.81 68.53 69.03 69.59 70.26 66.69 65.29 68.04 70.51 71.53
71.80 72.86 73.88 74.49 68.17 72.67 74.30 74.96 75.80 75.62 74.65 73.60 72.16 71.83 70.60 69.67 70.05 70.25 69.69 70.71 71.83 72.15 71.77 71.32 72.01 72.66 72.67 72.06 71.45 72.01 71.44 70.59 69.43 68.82 68.04 67.62 66.85 68.05 67.28 65.80 66.85 67.20 69.26
67.62 65.89 67.18 67.73 65.21 68.89 72.61 71.35 74.34 73.63 73.77 72.76 72.01 71.39 70.61 70.30 69.87 69.80 70.12 70.27 70.97 71.26 71.08 71.37 71.48 71.96 72.81 72.26 72.19 71.49 70.45 70.30 68.98 67.97 68.20 68.74 68.70 69.69 69.55 68.18 66.53 65.77 68.05
67.36 67.14 68.90 70.68 71.71 71.33 71.08 70.63 72.42 72.56 71.83 72.27 72.27 72.09 70.65 68.05 70.28 70.29 71.34 71.55 70.37 71.47 71.82 71.66 71.62 71.79 72.12 72.06 71.21 72.34 70.08 70.83 69.20 69.15 69.69 69.94 70.27 70.53 69.97 68.36 66.71 64.28 65.93
68.88 67.36 67.30 64.66 70.12 70.55 70.43 71.46 71.94 71.72 71.85 71.46 72.40 71.76 70.71 68.89 69.23 70.63 71.18 72.06 71.95 71.92 71.76 71.41 71.11 70.85 71.24 72.28 70.78 70.21 70.14 69.16 69.00 68.40 68.99 67.88 68.10 70.24 69.78 70.92 70.46 66.65 62.26
67.40 67.73 69.38 69.49 69.63 70.38 71.00 70.98 71.47 71.10 71.75 71.35 72.51 71.30 69.57 69.10 69.27 69.79 69.57 70.64 69.18 71.14 71.27 71.49 71.04 70.29 70.13 70.53 70.21 69.38 70.46 68.99 68.92 69.14 69.33 68.67 67.42 69.10 68.97 70.14 70.75 69.80 66.95
68.25 68.77 68.04 69.01 69.65 70.16 70.11 70.20 70.36 70.88 70.80 70.45 71.83 70.85 68.48 69.04 69.93 68.57 68.48 68.71 70.25 69.03 68.15 69.03 71.07 70.64 69.78 69.84 68.85 69.24 69.02 68.64 68.11 69.20 68.55 67.94 68.02 67.64 68.83 69.41 69.68 68.14 68.31
67.99 68.30 69.09 69.34 69.38 69.40 70.08 69.12 68.63 69.76 70.36 71.43 71.44 70.09 69.56 69.68 70.06 69.56 69.27 68.94 69.43 70.64 68.60 68.65 68.17 69.00 68.96 68.80 68.59 68.12 68.46 67.59 67.35 67.59 66.99 66.24 67.76 67.85 68.40 69.04 68.56 68.79 69.13
69.82 68.96 69.17 70.26 70.04 70.48 70.85 69.02 67.38 70.05 70.38 72.24 70.13 70.96 69.26 70.17 70.31 69.90 70.17 69.87 69.75 69.05 69.14 69.27 69.34 68.53 67.26 66.81 65.73 64.93 63.91 64.00 64.52 63.87 63.42 63.37 65.07 65.33 65.31 67.33 67.36 68.47 68.47
69.54 68.59 69.55 70.63 71.26 71.76 70.76 70.13 69.73 69.75 70.48 71.03 70.45 70.11 69.14 68.75 70.85 71.27 70.83 70.52 70.17 68.89 68.27 67.34 67.23 67.44 67.66 66.68 65.00 63.64 63.07 63.22 61.99 61.28 60.74 61.05 61.28 61.53 62.71 64.80 64.80 65.89 65.91
69.14 69.15 69.43 70.39 71.01 71.29 71.78 71.43 71.41 70.80 71.73 70.51 70.45 70.48 69.42 71.68 70.15 70.91 70.63 70.30 69.88 69.44 68.41 66.83 67.58 67.15 66.11 65.58 64.60 63.91 62.84 61.80 60.25 59.30 59.31 59.39 59.95 59.78 60.32 61.28 59.59 60.85 64.39
67.88 68.73 70.14 70.13 69.94 70.53 70.91 71.63 71.45 71.15 71.82 70.08 70.49 70.56 70.85 69.69 69.06 70.36 69.48 69.90 69.33 69.01 68.19 67.40 66.57 66.09 64.70 61.60 62.75 63.87 62.97 61.31 59.66 57.66 56.86 55.92 55.27 56.42 57.49 58.64 59.00 57.83 58.84
67.36 67.25 67.74 68.11 68.70 68.62 69.69 69.72 71.22 72.03 72.14 69.16 70.74 68.81 70.35 69.25 69.16 68.94 69.18 69.01 67.87 67.57 66.64 63.67 63.13 61.74 59.36 56.70 60.34 62.73 64.51 61.82 61.62 60.19 59.75 59.15 57.66 57.51 55.77 58.04 56.87 55.11 56.87
66.05 66.46 66.50 66.91 66.59 66.61 66.66 67.22 67.64 68.42 70.46 70.27 68.54 68.56 69.04 68.46 68.18 68.46 67.19 67.45 66.33 65.04 63.45 62.00 60.85 58.69 52.98 52.78 55.27 60.59 63.60 60.89 57.06 58.07 57.38 55.28 54.08 54.60 57.83 55.68 52.70 50.23 49.64
65.29 64.78 64.70 64.23 63.10 62.09 62.65 64.44 65.97 66.83 68.16 69.75 69.46 67.73 67.11 67.40 65.85 66.31 66.03 64.74 63.28 60.31 59.45 58.76 58.15 56.28 51.55 49.92 51.63 58.70 57.30 54.73 52.58 52.27 52.07 53.33 52.80 53.79 55.92 55.35 52.52 51.19 50.58
63.81 61.87 60.87 59.96 59.21 58.93 60.19 60.46 63.04 63.82 64.80 63.82 65.27 63.76 63.37 60.61 59.28 60.47 59.09 58.92 59.11 57.97 55.85 54.74 54.23 52.72 51.16 47.70 48.38 55.70 55.53 52.73 51.36 49.71 48.82 49.98 49.45 49.43 51.35 56.26 55.22 51.53 51.25
59.79 60.03 58.65 57.46 56.77 56.45 55.42 53.60 53.84 53.23 55.08 56.79 57.70 56.89 56.10 55.08 54.95 53.74 54.36 54.19 52.43 51.63 51.01 50.87 50.38 50.74 50.21 47.85 47.22 48.28 54.79 52.51 50.32 49.40 48.60 47.71 47.12 45.57 45.81 48.23 50.82 50.75 52.80
58.72 57.73 56.29 54.91 54.93 54.38 52.47 51.23 50.49 52.83 53.76 53.80 53.72 53.38 52.70 53.36 52.06 51.01 50.47 49.55 48.64 47.50 46.80 46.20 46.40 47.37 47.77 47.61 46.85 46.83 47.57 49.40 47.67 46.65 46.87 46.32 45.10 44.41 45.19 46.95 46.18 47.39 49.17
56.56 56.27 54.93 53.53 53.40 53.18 52.06 49.93 50.79 51.40 51.01 50.72 50.71 50.81 51.22 51.70 51.44 49.85 49.19 47.99 48.15 46.74 45.91 45.56 45.22 45.62 47.36 47.50 46.58 46.47 47.45 48.18 47.25 47.72 46.89 46.16 44.52 45.47 46.73 46.51 47.96 48.76 48.24
55.17 55.11 54.12 53.12 52.42 52.52 52.15 51.46 51.84 51.99 51.31 50.66 50.72 51.38 51.43 52.00 52.31 51.91 51.73 49.07 48.66 46.94 46.19 45.46 45.43 45.98 46.56 47.14 48.49 48.15 48.31 48.46 48.48 48.35 48.10 48.20 47.95 47.85 48.38 49.36 50.25 49.43 48.50
54.81 54.18 53.64 54.16 53.83 53.70 53.37 53.81 53.17 52.60 51.11 50.34 48.52 47.25 47.21 45.70 45.31 45.96 46.66 45.98 45.58 46.09 45.84 45.55 44.87 43.65 41.44 41.42 40.58 44.59 48.68 48.53 45.91 45.81 48.69 48.89 48.95 48.82 48.61 48.30 48.45 46.51 47.40
54.46 54.20 54.46 54.60 54.99 55.26 54.83 55.42 56.18 55.68 53.37 50.29 48.27 45.79 45.08 44.80 45.12 43.98 41.87 42.56 42.11 40.36 39.08 39.08 42.60 42.73 40.52 39.96 39.19 39.38 40.12 42.08 42.38 48.82 49.00 48.36 47.66 45.81 45.52 45.81 46.67 47.29 46.27
MSLP
1002.08 1003.30 1004.25 1005.17 1006.47 1007.56 1008.56 1009.37 1009.87 1010.29 1010.73 1011.03 1011.39 1011.39 1011.39 1011.35 1011.18 1011.20 1011.18 1011.43 1011.92 1012.17 1012.43 1013.11 1013.34 1013.67 1014.24 1014.55 1014.82 1015.02 1015.25 1015.77 1015.99 1016.58 1016.69 1016.64 1016.46 1016.40 1016.56 1016.53 1016.83 1017.04 1017.31
1001.67 1002.80 1003.87 1004.92 1006.04 1007.33 1008.44 1009.22 1009.77 1010.17 1010.77 1011.17 1011.31 1011.48 1011.53 1011.58 1011.49 1011.31 1011.21 1011.45 1011.84 1011.97 1012.19 1012.76 1013.00 1013.44 1013.82 1014.32 1014.56 1014.87 1015.14 1015.78 1016.10 1016.41 1016.75 1016.64 1016.43 1016.03 1016.10 1016.44 1016.54 1016.76 1017.07
1001.40 1002.52 1003.64 1004.75 1006.03 1007.56 1008.37 1008.82 1009.43 1010.09 1010.56 1011.04 1011.28 1011.50 1011.72 1011.70 1011.53 1011.41 1011.40 1011.23 1011.28 1011.70 1011.85 1012.17 1012.79 1012.98 1013.41 1013.84 1014.23 1014.58 1015.01 1015.68 1016.11 1016.26 1016.47 1016.54 1016.26 1016.14 1016.04 1016.26 1016.42 1016.48 1016.75
1001.41 1002.77 1004.29 1005.36 1006.35 1007.31 1008.00 1008.76 1009.28 1009.64 1010.26 1010.96 1011.19 1011.51 1011.61 1011.70 1011.44 1011.30 1011.30 1011.25 1011.21 1011.14 1011.35 1011.87 1012.32 1012.70 1013.03 1013.35 1013.88 1014.35 1014.84 1015.18 1015.86 1016.35 1016.30 1016.24 1016.09 1016.11 1016.22 1016.13 1016.13 1016.26 1016.53
1001.92 1003.58 1004.95 1006.22 1006.75 1007.00 1007.18 1008.59 1009.42 1009.78 1010.15 1010.56 1010.99 1011.28 1011.51 1011.61 1011.25 1011.02 1010.85 1010.81 1010.89 1010.72 1011.02 1011.43 1011.96 1012.43 1012.82 1012.97 1013.46 1014.01 1014.54 1014.75 1015.87 1016.10 1016.17 1016.22 1015.85 1015.96 1016.09 1016.04 1016.09 1016.12 1016.17
1003.19 1004.51 1005.93 1006.98 1008.34 1008.33 1007.68 1008.67 1009.47 1009.85 1009.92 1010.38 1010.75 1011.14 1011.33 1011.20 1010.96 1010.60 1010.40 1010.33 1010.50 1010.74 1010.95 1011.21 1011.57 1011.95 1012.22 1012.68 1013.27 1013.74 1014.32 1014.74 1015.34 1015.63 1016.11 1016.35 1016.01 1015.82 1015.83 1015.93 1015.81 1015.98 1015.85
1004.17 1005.50 1006.62 1007.46 1007.37 1009.05 1008.00 1008.68 1009.77 1009.98 1009.80 1010.20 1010.70 1011.06 1011.27 1011.02 1010.78 1010.41 1010.01 1010.08 1010.37 1010.53 1010.91 1011.11 1011.38 1011.79 1011.96 1012.18 1012.83 1013.40 1014.00 1014.49 1014.92 1015.56 1015.94 1016.18 1015.69 1015.47 1015.27 1015.39 1015.57 1015.64 1015.52
1004.39 1005.55 1006.44 1007.14 1007.65 1007.62 1008.51 1009.18 1009.98 1009.95 1009.93 1010.18 1010.64 1011.01 1011.32 1011.30 1010.86 1010.49 1010.15 1010.29 1010.46 1010.55 1010.74 1010.97 1011.26 1011.37 1011.58 1011.89 1012.33 1012.79 1013.66 1014.28 1014.70 1015.05 1015.08 1015.25 1014.81 1014.78 1014.84 1015.01 1015.39 1015.55 1015.47
1005.00 1006.13 1006.87 1007.52 1007.59 1007.99 1008.76 1009.32 1009.79 1009.69 1009.98 1010.29 1010.60 1011.07 1011.35 1011.46 1011.14 1010.69 1010.53 1010.59 1010.66 1010.74 1010.80 1010.96 1011.15 1011.29 1011.49 1011.83 1012.07 1012.92 1013.50 1013.97 1014.35 1014.90 1015.09 1015.32 1014.99 1014.95 1014.73 1014.59 1014.84 1015.26 1015.69
1005.45 1005.81 1006.26 1006.62 1007.12 1007.92 1008.81 1009.10 1009.33 1009.70 1009.90 1010.31 1010.65 1011.09 1011.60 1011.65 1011.41 1011.01 1011.00 1010.95 1011.07 1011.02 1010.96 1011.04 1011.24 1011.38 1011.51 1011.74 1012.30 1012.90 1013.59 1014.00 1014.36 1014.85 1015.05 1015.02 1014.88 1015.14 1014.90 1014.60 1014.59 1014.82 1015.29
1004.42 1005.23 1005.73 1006.33 1006.63 1007.49 1008.33 1008.87 1009.03 1009.50 1009.91 1010.30 1010.73 1011.04 1011.58 1011.69 1011.67 1011.60 1011.50 1011.43 1011.38 1011.36 1011.31 1011.27 1011.48 1011.76 1011.93 1012.23 1012.61 1012.92 1013.52 1014.16 1014.62 1014.89 1015.10 1015.23 1015.06 1015.03 1015.34 1014.77 1014.52 1014.86 1015.08
1004.56 1005.08 1005.64 1006.28 1006.70 1007.19 1007.78 1008.44 1008.88 1009.31 1009.86 1010.15 1010.48 1010.91 1011.30 1011.53 1011.75 1011.89 1011.82 1011.80 1011.82 1011.94 1011.93 1011.97 1012.09 1012.40 1012.76 1013.06 1013.15 1013.55 1014.13 1014.65 1015.06 1015.27 1015.44 1015.76 1015.77 1015.02 1014.98 1014.90 1015.02 1015.21 1015.19
1004.70 1005.59 1006.06 1006.34 1006.53 1007.10 1007.83 1008.63 1008.98 1008.92 1009.56 1009.82 1010.43 1010.55 1010.90 1011.25 1011.55 1011.91 1012.10 1012.09 1012.14 1012.21 1012.29 1012.43 1012.61 1013.00 1013.42 1013.82 1014.17 1014.55 1015.05 1015.38 1015.64 1015.89 1016.12 1016.42 1016.26 1016.39 1016.16 1015.76 1015.69 1015.54 1015.63
1005.47 1006.08 1006.33 1006.51 1006.79 1007.20 1007.89 1008.44 1008.84 1008.71 1009.24 1009.61 1010.29 1010.49 1010.78 1011.19 1011.27 1011.62 1012.02 1012.30 1012.43 1012.64 1012.97 1013.12 1013.25 1013.55 1013.94 1014.47 1014.82 1015.06 1015.40 1015.86 1016.23 1016.58 1016.79 1016.93 1017.12 1017.15 1017.14 1016.80 1016.60 1016.34 1016.30
1005.61 1006.31 1006.74 1006.97 1007.13 1007.40 1007.62 1008.03 1008.36 1008.78 1009.18 1009.64 1010.02 1010.40 1010.69 1010.72 1011.23 1011.64 1012.04 1012.33 1012.59 1012.95 1013.40 1013.75 1014.06 1014.41 1014.77 1015.15 1015.41 1015.75 1016.10 1016.45 1016.91 1017.30 1017.53 1017.68 1017.67 1017.50 1017.59 1017.48 1017.46 1017.10 1016.77
1006.26 1006.74 1006.96 1007.21 1007.55 1007.70 1007.85 1008.13 1008.31 1008.54 1008.94 1009.48 1009.60 1010.17 1010.51 1011.11 1011.45 1011.84 1012.21 1012.44 1012.75 1013.22 1013.66 1014.08 1014.54 1014.94 1015.40 1015.82 1015.97 1016.27 1016.61 1016.98 1017.35 1017.77 1018.16 1018.29 1018.34 1018.29 1018.26 1018.25 1018.22 1018.18 1017.76
1006.79 1007.39 1007.67 1008.07 1008.52 1008.59 1008.72 1008.87 1009.10 1009.12 1009.22 1009.53 1009.81 1010.22 1010.67 1011.31 1011.67 1011.87 1012.33 1012.84 1013.46 1013.90 1014.45 1015.06 1015.39 1015.90 1016.44 1016.52 1016.56 1016.70 1016.96 1017.28 1017.63 1017.97 1018.30 1018.51 1018.74 1018.65 1018.24 1018.32 1018.62 1018.82 1018.63
1007.54 1008.04 1008.50 1009.16 1009.72 1009.92 1010.05 1010.12 1010.01 1009.95 1009.75 1009.97 1010.08 1010.39 1010.77 1011.37 1011.94 1012.56 1013.36 1013.86 1014.41 1014.87 1015.38 1015.95 1016.42 1016.84 1017.35 1016.86 1016.93 1017.05 1017.21 1017.77 1018.29 1018.35 1018.63 1018.90 1019.07 1018.82 1018.56 1018.95 1019.52 1019.80 1019.56
1008.63 1009.47 1010.20 1010.84 1011.37 1011.71 1011.63 1011.26 1010.86 1010.66 1010.36 1010.27 1010.54 1010.80 1011.22 1012.27 1013.10 1013.87 1014.31 1014.81 1015.31 1016.03 1016.48 1017.04 1017.34 1017.68 1018.21 1017.64 1017.30 1017.53 1018.03 1018.68 1019.21 1019.50 1019.60 1019.57 1019.57 1019.22 1019.21 1019.45 1020.06 1020.37 1020.72
1010.35 1011.09 1011.65 1012.12 1012.44 1012.66 1012.47 1012.24 1011.80 1011.63 1011.51 1011.63 1011.53 1011.97 1012.77 1013.86 1014.66 1014.96 1015.53 1015.98 1016.35 1017.06 1017.77 1018.47 1018.77 1018.78 1018.80 1018.68 1017.90 1018.12 1018.73 1019.27 1019.86 1020.30 1020.48 1020.54 1020.34 1019.97 1020.05 1020.04 1020.34 1020.81 1021.14
1011.53 1012.08 1012.61 1013.04 1013.39 1013.62 1013.67 1013.74 1013.66 1013.50 1013.57 1013.26 1013.20 1013.58 1014.41 1015.38 1016.01 1016.29 1016.72 1017.35 1017.97 1018.59 1019.34 1019.71 1020.15 1020.01 1020.02 1019.75 1019.19 1019.04 1019.16 1019.74 1020.36 1020.88 1021.27 1021.64 1021.29 1021.24 1021.09 1021.14 1021.26 1021.53 1021.46
1012.22 1012.89 1013.49 1014.05 1014.34 1014.51 1014.64 1014.80 1014.86 1015.05 1014.85 1014.63 1014.63 1015.26 1015.55 1016.43 1016.83 1017.14 1018.08 1018.78 1019.34 1019.78 1020.48 1020.68 1021.05 1021.19 1021.38 1020.91 1020.63 1020.65 1020.85 1021.13 1021.50 1021.99 1022.26 1022.27 1022.22 1022.35 1022.20 1021.89 1022.21 1022.05 1021.76
1013.12 1013.69 1014.22 1014.83 1015.15 1015.28 1015.36 1015.58 1016.01 1016.01 1016.10 1015.99 1016.10 1016.40 1016.84 1017.34 1017.95 1018.35 1018.98 1019.61 1020.22 1020.55 1021.02 1021.64 1021.86 1021.99 1022.05 1022.29 1022.28 1022.21 1022.15 1022.21 1022.26 1022.62 1022.68 1022.85 1022.89 1022.69 1022.77 1022.74 1022.62 1022.50 1022.37
1013.73 1014.28 1014.65 1015.21 1015.77 1015.99 1016.04 1016.25 1016.59 1016.65 1016.79 1016.95 1017.23 1017.41 1017.74 1018.21 1018.67 1019.12 1019.82 1020.45 1021.13 1021.56 1021.68 1021.92 1022.33 1022.70 1022.82 1022.89 1023.00 1022.74 1022.88 1022.77 1022.90 1022.66 1022.70 1022.66 1022.83 1022.67 1022.45 1022.47 1022.32 1022.33 1022.30
1014.20 1014.74 1015.06 1015.32 1015.95 1016.34 1016.41 1016.58 1016.94 1017.08 1017.28 1017.58 1017.98 1018.24 1018.56 1019.07 1019.69 1020.23 1021.01 1021.71 1022.15 1022.33 1022.34 1022.51 1022.67 1022.98 1023.20 1023.49 1023.43 1023.40 1023.26 1023.09 1023.03 1022.89 1022.56 1022.48 1022.48 1022.29 1022.44 1022.41 1022.39 1022.47 1022.48
1014.66 1015.06 1015.40 1015.68 1016.03 1016.21 1016.50 1016.80 1016.95 1017.06 1017.38 1017.84 1018.35 1018.80 1019.21 1019.74 1020.30 1021.05 1022.00 1022.65 1022.82 1022.92 1023.08 1023.00 1022.94 1023.43 1023.57 1023.57 1023.48 1023.25 1023.00 1022.74 1022.69 1022.62 1022.45 1022.43 1022.50 1022.60 1022.61 1022.62 1022.53 1022.67 1022.93
Wind_Speed
15 15 14 13 14 12 10 7 6 6 5 4 4 4 6 5 5 0 3 5 5 8 8 7 7 5 5 6 6 3 3 2 1 4 2 4 4 5 5 4 3 4 6
8 15 15 12 13 12 9 7 6 6 5 3 3 4 1 4 5 3 5 5 7 9 8 8 8 7 6 7 7 5 2 2 4 2 1 2 4 6 6 4 4 6 6
13 11 11 13 9 11 9 8 7 5 4 5 3 2 3 4 3 4 4 6 7 8 9 9 8 7 7 6 7 6 6 4 3 5 3 2 3 1 2 5 5 5 4
5 8 11 11 8 6 7 7 7 7 3 2 3 5 5 4 3 3 4 4 8 8 8 9 9 8 6 9 7 6 4 5 3 2 5 7 2 2 2 2 3 4 5
11 15 14 10 7 8 11 8 7 7 4 0 3 2 3 5 5 5 7 7 6 7 8 9 10 8 7 9 8 8 6 5 5 6 1 6 5 4 3 1 1 4 4
18 17 14 9 19 17 12 11 7 5 2 2 6 5 5 8 5 6 5 5 5 5 7 9 9 9 9 9 8 7 8 7 8 3 4 4 4 2 1 1 2 4 4
15 14 12 10 17 19 8 2 7 3 5 5 3 6 7 8 7 8 4 4 4 4 6 8 8 7 8 8 9 9 8 7 5 5 6 6 6 2 2 1 2 2 2
14 16 11 10 9 10 5 2 6 4 3 4 4 4 6 5 5 6 3 1 3 3 5 6 7 9 9 7 9 5 6 6 5 5 3 4 2 1 1 2 1 3 1
17 10 10 7 9 8 5 6 2 4 5 4 2 4 4 6 6 7 5 2 2 1 3 6 6 7 9 8 8 6 7 6 5 4 3 3 3 4 3 4 3 2 2
16 14 13 12 10 9 6 5 4 3 5 6 3 4 6 6 5 6 7 7 5 4 2 3 5 5 6 8 8 7 7 6 4 4 4 2 2 3 5 5 1 2 1
16 13 12 11 10 9 7 5 7 6 5 3 2 6 5 4 4 5 5 5 5 6 6 4 6 5 5 5 6 5 7 6 6 4 3 5 4 4 3 3 1 2 2
16 15 13 10 10 12 12 6 5 5 4 4 2 7 6 3 5 3 4 4 5 4 4 6 5 7 8 7 6 6 6 7 6 5 5 7 6 3 4 2 3 4 3
13 13 8 7 6 8 9 6 1 6 5 6 3 1 6 5 5 4 3 4 4 5 6 6 7 9 8 8 8 9 9 9 9 9 9 7 7 7 7 6 5 3 2
14 7 5 5 5 6 7 5 4 3 6 5 4 1 4 5 4 5 5 5 4 5 7 7 8 8 8 8 8 9 9 9 9 8 8 7 7 7 7 6 6 4 4
11 9 7 4 3 4 4 5 6 4 7 4 6 5 5 2 5 6 6 5 5 6 7 7 8 8 8 6 7 8 8 8 9 8 7 7 9 13 11 5 8 8 4
10 9 6 5 3 5 2 1 3 4 6 2 6 7 4 8 5 7 6 6 6 6 7 6 7 6 7 5 8 8 7 7 7 7 6 5 8 9 10 10 17 14 5
8 5 5 5 4 4 6 7 5 5 1 6 4 7 7 9 5 5 6 7 11 12 12 11 9 10 9 12 5 7 6 6 6 7 5 4 3 2 5 12 17 16 19
10 8 7 8 9 8 9 10 10 9 7 4 4 7 7 6 7 8 11 12 11 11 10 12 11 9 10 14 9 5 7 8 11 9 9 8 5 6 5 10 10 11 13
10 8 8 9 9 9 9 8 7 7 9 5 4 7 7 12 13 10 11 10 12 11 12 11 10 10 11 16 14 9 11 11 11 11 11 8 8 11 10 10 9 8 8
10 8 8 7 8 9 9 10 10 9 9 10 9 15 14 13 11 12 12 11 11 12 11 12 12 14 12 20 20 7 7 9 8 9 10 18 12 17 14 8 8 9 7
8 9 9 9 10 9 9 9 8 12 9 10 13 15 14 12 12 13 12 12 13 12 11 13 11 13 13 15 22 22 8 7 7 7 7 7 15 15 16 12 8 5 3
10 11 10 10 9 9 8 10 11 8 10 10 14 13 13 9 9 14 12 12 11 11 10 10 9 8 10 17 20 21 19 14 7 6 6 7 13 14 13 9 11 11 9
9 9 9 10 9 8 8 10 9 10 11 13 14 14 13 12 12 12 12 10 9 8 8 6 6 6 6 7 13 14 14 13 8 4 6 7 6 9 6 5 3 3 2
9 9 10 10 9 8 10 11 10 11 13 13 12 11 13 12 12 9 8 8 7 6 6 6 5 4 4 4 2 5 5 9 5 5 3 3 5 6 4 2 4 3 3
9 8 8 9 11 9 9 9 10 11 12 12 12 11 11 13 11 11 9 7 6 5 5 4 4 4 3 1 3 2 4 3 3 3 3 3 2 2 2 2 3 3 4
9 9 9 10 10 11 10 9 9 10 12 12 11 10 10 10 10 10 10 17 14 13 12 10 7 6 6 4 5 8 8 6 4 2 3 3 4 4 4 4 3 4 6
Wind_Direction
175 169 177 169 150 158 158 158 180 169 173 188 202 243 242 257 260 108 3 221 228 211 196 220 229 204 201 180 184 191 217 235 178 221 257 253 252 221 203 212 221 224 179
188 168 168 174 151 147 150 167 191 183 185 206 227 240 232 242 260 303 273 264 225 227 208 205 230 202 200 189 185 182 141 183 205 189 146 259 238 230 208 173 219 212 184
170 175 158 142 135 130 160 181 170 206 208 230 248 281 284 274 281 251 258 246 252 239 213 203 217 220 190 192 183 180 174 164 211 211 197 231 224 181 194 192 201 235 188
112 116 99 120 133 154 138 156 176 193 177 251 251 238 269 281 262 251 234 233 243 234 223 206 209 220 195 199 178 177 178 140 224 239 252 248 202 159 249 183 207 200 196
142 127 124 120 163 171 131 119 126 108 118 272 284 315 298 272 283 266 256 235 221 229 227 206 204 208 207 201 182 174 180 159 183 210 205 247 222 202 251 65 232 241 185
109 112 109 98 44 306 132 127 111 127 112 11 41 24 309 310 301 290 256 235 210 211 217 215 203 200 206 186 181 179 186 178 207 181 260 270 243 218 212 259 208 201 197
119 110 111 120 164 233 83 131 112 123 91 77 48 24 357 330 328 321 256 211 192 188 205 209 202 199 207 185 180 180 186 198 191 190 204 215 227 228 224 231 253 188 210
140 137 128 141 165 103 111 201 120 90 74 86 62 39 24 340 345 344 20 174 208 202 201 196 202 200 194 197 195 177 177 186 162 192 179 300 266 204 236 233 312 311 175
118 125 147 141 126 123 141 99 103 111 109 109 48 48 48 356 358 21 24 30 75 164 191 201 199 209 196 187 186 151 143 144 142 199 177 219 271 318 272 219 241 226 337
145 161 160 168 138 130 116 120 119 113 80 93 49 65 72 35 355 43 38 47 44 42 177 201 176 193 184 187 149 138 148 148 142 171 196 209 257 290 344 312 359 323 151
153 128 161 137 145 129 126 199 138 137 116 86 360 118 107 78 51 24 43 32 50 51 43 71 114 130 139 142 150 126 148 137 151 157 183 233 258 268 193 301 336 31 333
144 151 141 153 160 165 162 149 114 121 134 112 164 145 141 113 92 132 68 63 69 101 101 104 82 94 89 67 84 121 91 83 76 74 69 39 8 313 332 294 334 55 37
143 136 160 153 136 108 102 114 236 136 152 151 140 264 151 166 147 133 104 79 68 71 52 53 107 113 93 81 80 81 79 68 59 52 55 36 33 29 351 9 25 14 6
146 153 131 145 127 117 126 142 212 181 142 136 161 146 133 183 176 145 121 121 110 93 79 68 63 71 97 96 91 95 83 74 63 51 44 36 41 41 9 348 9 355 359
131 123 126 123 155 162 136 157 183 175 129 160 166 138 164 141 118 115 113 128 140 131 116 112 101 96 93 91 92 90 93 93 83 66 55 43 46 55 50 35 2 357 331
134 164 127 129 59 16 93 303 164 161 170 197 159 150 122 113 129 125 121 132 133 113 122 115 109 76 77 72 110 113 105 96 94 98 92 85 74 74 86 81 55 35 347
132 110 113 95 58 29 8 344 26 342 141 157 218 138 149 133 139 142 113 76 68 74 76 70 67 58 44 11 157 136 121 119 126 139 146 130 114 245 131 62 52 31 19
149 122 76 47 28 8 3 350 341 328 315 214 238 145 151 147 138 93 87 82 77 76 75 67 63 61 35 29 25 170 132 86 58 47 64 73 45 13 60 85 71 57 46
78 73 58 39 28 15 348 331 308 297 294 291 238 152 104 68 65 73 83 89 89 78 72 66 63 63 34 17 33 76 77 71 64 55 40 52 39 30 73 95 98 85 81
66 67 66 58 41 17 18 24 25 42 19 47 60 81 81 86 82 82 71 78 80 77 67 61 47 50 46 20 32 79 108 103 87 63 51 48 55 50 45 66 82 71 41
79 75 63 55 42 37 49 46 41 44 39 65 76 80 83 81 79 73 63 70 79 78 78 70 53 52 37 40 43 40 56 84 77 74 59 39 48 52 51 53 63 76 65
79 72 64 54 48 59 65 61 53 39 54 68 77 77 81 84 84 87 81 77 80 81 73 75 64 51 42 40 50 53 57 58 74 69 56 60 56 42 39 43 24 12 7
84 78 82 74 60 63 72 78 66 72 71 74 76 81 83 82 83 84 87 85 83 87 86 73 73 68 64 67 58 71 76 80 83 78 100 94 80 82 61 55 10 69 42
97 98 95 90 84 80 84 87 88 88 89 88 87 85 88 89 83 80 80 79 86 86 88 86 87 85 73 63 55 96 102 110 115 144 169 202 195 220 124 53 51 27 20
105 103 98 97 107 115 109 107 107 102 98 93 89 87 80 80 78 68 70 79 61 78 95 104 107 104 81 60 305 240 181 179 86 328 186 191 165 138 150 139 107 62 23
115 116 110 109 109 110 107 111 117 114 104 102 99 99 98 96 94 89 79 54 63 58 57 50 79 76 67 46 46 41 32 22 5 246 105 68 58 49 27 29 37 86 49